TimeEST,TemperatureF,Dew PointF,Humidity,Sea Level PressureIn,VisibilityMPH,Wind Direction,Wind SpeedMPH,Gust SpeedMPH,PrecipitationIn,Events,Conditions,WindDirDegrees,DateUTC
12:53 AM,-9999,-9999,N/A,30.10,10.0,NE,3.5,-,N/A,,Clear,50,2012-11-04 04:53:00
1:53 AM,-9999,-9999,N/A,30.09,10.0,NE,5.8,-,N/A,,Clear,50,2012-11-04 05:53:00
1:53 AM,-9999,-9999,N/A,30.08,10.0,NE,5.8,-,N/A,,Clear,50,2012-11-04 06:53:00
2:53 AM,-9999,-9999,N/A,30.07,10.0,NE,4.6,-,N/A,,Clear,50,2012-11-04 07:53:00
3:53 AM,-9999,-9999,N/A,30.06,10.0,NE,5.8,-,N/A,,Clear,50,2012-11-04 08:53:00
4:53 AM,-9999,-9999,N/A,30.06,10.0,ENE,4.6,-,N/A,,Clear,60,2012-11-04 09:53:00
5:53 AM,-9999,-9999,N/A,30.07,10.0,NE,5.8,-,N/A,,Clear,40,2012-11-04 10:53:00
5:57 AM,71.6,64.4,78,30.08,10.0,NE,4.6,-,N/A,,Clear,50,2012-11-04 10:57:00
6:53 AM,71.6,64.9,79,30.08,10.0,NE,5.8,-,N/A,,Partly Cloudy,50,2012-11-04 11:53:00
7:53 AM,71.6,66.0,82,30.10,10.0,NE,6.9,-,N/A,,Partly Cloudy,50,2012-11-04 12:53:00
8:53 AM,73.4,64.9,75,30.11,10.0,ENE,5.8,-,N/A,,Partly Cloudy,60,2012-11-04 13:53:00
9:53 AM,73.4,63.0,70,30.11,10.0,NE,8.1,-,N/A,,Partly Cloudy,50,2012-11-04 14:53:00
10:53 AM,75.2,63.0,66,30.10,10.0,ENE,6.9,-,N/A,,Partly Cloudy,70,2012-11-04 15:53:00
11:53 AM,77.0,62.1,60,30.07,10.0,ENE,8.1,-,N/A,,Partly Cloudy,70,2012-11-04 16:53:00
12:53 PM,78.8,62.1,56,30.05,10.0,ENE,8.1,-,N/A,,Partly Cloudy,70,2012-11-04 17:53:00
1:53 PM,78.8,63.0,58,30.03,10.0,ENE,9.2,-,N/A,,Scattered Clouds,70,2012-11-04 18:53:00
2:53 PM,78.8,62.1,56,30.02,10.0,East,8.1,-,N/A,,Scattered Clouds,80,2012-11-04 19:53:00
3:53 PM,77.0,62.1,60,30.01,10.0,ENE,6.9,-,N/A,,Scattered Clouds,70,2012-11-04 20:53:00
4:53 PM,77.0,63.0,62,30.01,10.0,East,9.2,-,N/A,,Scattered Clouds,80,2012-11-04 21:53:00
5:53 PM,73.4,63.0,70,30.01,10.0,East,8.1,-,N/A,,Scattered Clouds,80,2012-11-04 22:53:00
6:53 PM,73.4,64.0,72,30.01,10.0,ENE,4.6,-,N/A,,Scattered Clouds,70,2012-11-04 23:53:00
7:53 PM,73.4,61.0,65,30.02,10.0,East,8.1,-,N/A,,Partly Cloudy,100,2012-11-05 00:53:00
8:53 PM,73.4,61.0,65,30.03,10.0,East,6.9,-,N/A,,Partly Cloudy,100,2012-11-05 01:53:00
9:53 PM,73.4,61.0,65,30.04,10.0,ESE,4.6,-,N/A,,Partly Cloudy,110,2012-11-05 02:53:00
10:53 PM,-9999,-9999,N/A,30.03,10.0,Calm,Calm,-,N/A,,Clear,0,2012-11-05 03:53:00